Satellite-Ground Cal/Val Region Overpasses Predictions

Prediction of Satellite NPP Overpassing Cal/Val Region: PacNW

Region Location: (Latitude: 10.00, Longitude: 139.50) to (Latitude: 22.70, Longitude: 165.60).

Table of predicted overpasses for the next 14.0 days since TLE Epoch: 4/24/2020
Interval Starting Time Starting Location Ending Time Ending Location
1 04/25/2020 02:32:41 ( 10.05, 161.45) 04/25/2020 02:36:16 ( 22.67, 158.45)
2 04/25/2020 15:04:34 ( 22.66, 158.69) 04/25/2020 15:08:09 ( 10.04, 155.69)
3 04/26/2020 02:14:24 ( 12.72, 165.60) 04/26/2020 02:17:14 ( 22.70, 163.20)
4 04/26/2020 03:55:08 ( 10.02, 140.84) 04/26/2020 03:56:46 ( 15.78, 139.51)
5 04/26/2020 14:45:31 ( 22.69, 163.46) 04/26/2020 14:49:07 ( 10.01, 160.44)
6 04/27/2020 03:36:07 ( 10.05, 145.60) 04/27/2020 03:39:42 ( 22.67, 142.59)
7 04/27/2020 14:29:36 ( 11.75, 165.60) 04/27/2020 14:30:05 ( 10.05, 165.21)
8 04/27/2020 16:08:00 ( 22.66, 142.84) 04/27/2020 16:11:35 ( 10.04, 139.83)
9 04/28/2020 03:17:04 ( 10.02, 150.36) 04/28/2020 03:20:40 ( 22.70, 147.34)
10 04/28/2020 15:48:57 ( 22.69, 147.60) 04/28/2020 15:52:33 ( 10.01, 144.59)
11 04/29/2020 02:58:03 ( 10.04, 155.11) 04/29/2020 03:01:38 ( 22.67, 152.11)
12 04/29/2020 15:29:56 ( 22.67, 152.35) 04/29/2020 15:33:31 ( 10.05, 149.35)
13 04/30/2020 02:39:01 ( 10.01, 159.88) 04/30/2020 02:42:37 ( 22.69, 156.86)
14 04/30/2020 15:10:53 ( 22.70, 157.12) 04/30/2020 15:14:29 ( 10.02, 154.10)
15 05/01/2020 02:19:59 ( 10.04, 164.63) 05/01/2020 02:23:34 ( 22.66, 161.63)
16 05/01/2020 14:51:52 ( 22.67, 161.87) 05/01/2020 14:55:27 ( 10.05, 158.87)
17 05/02/2020 03:42:27 ( 10.01, 144.02) 05/02/2020 03:46:03 ( 22.70, 141.00)
18 05/02/2020 14:34:02 ( 18.42, 165.59) 05/02/2020 14:36:25 ( 10.03, 163.62)
19 05/02/2020 16:14:19 ( 22.70, 141.26) 05/02/2020 16:16:22 ( 15.48, 139.51)
20 05/03/2020 03:23:25 ( 10.04, 148.77) 05/03/2020 03:27:00 ( 22.67, 145.77)
21 05/03/2020 15:55:18 ( 22.67, 146.01) 05/03/2020 15:58:53 ( 10.05, 143.01)
22 05/04/2020 03:04:23 ( 10.01, 153.54) 05/04/2020 03:07:59 ( 22.69, 150.52)
23 05/04/2020 15:36:16 ( 22.64, 150.77) 05/04/2020 15:39:51 ( 10.02, 147.76)
24 05/05/2020 02:45:21 ( 10.04, 158.29) 05/05/2020 02:48:56 ( 22.66, 155.29)
25 05/05/2020 15:17:14 ( 22.67, 155.53) 05/05/2020 15:20:49 ( 10.05, 152.53)
26 05/06/2020 02:26:19 ( 10.01, 163.06) 05/06/2020 02:29:55 ( 22.69, 160.04)
27 05/06/2020 14:58:12 ( 22.64, 160.28) 05/06/2020 15:01:47 ( 10.03, 157.28)
28 05/07/2020 02:09:58 ( 19.50, 165.59) 05/07/2020 02:10:52 ( 22.66, 164.80)
29 05/07/2020 03:48:47 ( 10.05, 142.43) 05/07/2020 03:52:17 ( 22.38, 139.50)
30 05/07/2020 14:39:10 ( 22.67, 165.05) 05/07/2020 14:42:45 ( 10.06, 162.05)
31 05/07/2020 16:20:40 ( 22.67, 139.67) 05/07/2020 16:20:51 ( 22.02, 139.51)
32 05/08/2020 03:29:45 ( 10.02, 147.20) 05/08/2020 03:33:20 ( 22.64, 144.19)


NCC Satellite Cal/Val Overpasses Prediction Service
